Regional Weather Roundup
Issued by NWS

Home | Current Version | Previous Version | Text Only | Print | Product List | Glossary Off
Versions: 1 2 3 4 5 6 7 8 9 10 11 12 13 14 15 16 17 18 19 20 21 22 23 24 25 26 27 28 29 30 31 32 33 34 35 36 37 38 39 40 41 42 43 44 45 46 47 48 49 50

175
ASUS43 KLOT 241103
RWRIL

ILLINOIS REGIONAL WEATHER ROUNDUP
NATIONAL WEATHER SERVICE CHICAGO/ROMEOVILLE IL
600 AM CDT MON APR 24 2017

NOTE: "FAIR" INDICATES FEW OR NO CLOUDS BELOW 12,000 FEET WITH NO
SIGNIFICANT WEATHER AND/OR OBSTRUCTIONS TO VISIBILITY.

* THESE STATIONS ARE NOT UNDER NWS QUALITY CONTROL. THEY ALSO MAY NOT
  REPORT WEATHER SUCH AS PRECIPITATION OR FOG.

ILZ001-002-007-009-015-016-024-241200-
NORTHWEST ILLINOIS

CITY           SKY/WX    TMP DP  RH WIND       PRES   REMARKS
MOLINE         CLOUDY    41  34  76 CALM      29.97R
STERLING*      CLOUDY    43  33  68 E3        29.99S
SAVANNA*       CLEAR     41  38  89 NE5       29.99R
$$

ILZ003-004-008-010-011-017-018-241200-
NORTH CENTRAL ILLINOIS

CITY           SKY/WX    TMP DP  RH WIND       PRES   REMARKS
ROCKFORD       PTCLDY    42  36  79 E3        30.02R
FREEPORT*      CLOUDY    39  33  78 E3        30.01R
ROCHELLE*      CLEAR     43  35  73 SE6       30.01R
DE KALB*       CLEAR     38  36  89 E3        30.01S
PERU*          CLEAR     40  31  71 NE6       30.01R
$$

ILZ005-006-012>014-019>023-241200-
NORTHEAST ILLINOIS

CITY           SKY/WX    TMP DP  RH WIND       PRES   REMARKS
CHICAGO-OHARE  PTCLDY    40  36  86 N5        30.02S
CHICAGO-MIDWAY PTCLDY    43  39  86 NE3       30.02S
AURORA         CLEAR     39  36  89 NE6       30.01F WCI  35
LANSING*       CLEAR     41  41 100 CALM      30.02R
JOLIET*        CLEAR     42  40  90 CALM      30.01S
WAUKEGAN       CLEAR     34  32  92 CALM      30.02S
DUPAGE AIRPORT CLEAR     35  35 100 NE5       30.01S WCI  31
KANKAKEE*      CLEAR     38  31  74 CALM      30.02R
WHEELING       CLEAR     38  38 100 CALM      30.03F
MORRIS*        CLEAR     40  36  84 CALM      30.00S
ROMEOVILLE*    CLEAR     40  40  99 NE6       30.01S
NORTHERLY ISL    N/A     42  39  89 N6          N/A
$$

LMZ740>746-241200-
SOUTHERN LAKE MICHIGAN

STATION/POSITION SKY/WX   TEMP    WIND        PRES    VSBY  WAVE
                          AIR SEA DIR/SP/G                  HT/PER
                          (F)     (DEG/KT/KT) (MB)    (MI)  (FT/S)
SOUTHERN BUOY              41 40   30/  4/  6 1017.2          3/ 6
HARRISON CRIB              43     360/  6/  7   N/A
BURNHAM HARBOR             42     340/  2/  8   N/A
CALUMET HARBOR             43      30/  5/  7 1016.1S
BURNS HARBOR               45     360/  3/  4 1016.9S
MICHIGAN CITY              44      CALM  /  1   N/A
ST. JOSEPH                 49 50  130/  2/  4 1016.9R         3/ 2
$$

ILZ025>027-034>036-040-047-049-050-058-095>099-241200-
WEST-CENTRAL ILLINOIS

CITY           SKY/WX    TMP DP  RH WIND       PRES   REMARKS
QUINCY         CLEAR     46  31  55 SE7       29.95F
GALESBURG*     CLEAR     40  35  83 SE3       29.96S
MACOMB*        CLEAR     40  33  74 CALM      29.99S
JACKSONVILLE*  CLEAR     42  31  64 CALM      29.97R
PITTSFIELD*    CLEAR     39  34  81 CALM      29.96F
$$

ILZ028>032-037-038-041>044-048-051>054-059>061-241200-
CENTRAL ILLINOIS

CITY           SKY/WX    TMP DP  RH WIND       PRES   REMARKS
PONTIAC        CLEAR     42  32  66 E7        30.00R
BLOOMINGTON    CLEAR     44  29  55 SE10      29.99S
DECATUR        CLEAR     41  30  65 NE6       29.98R
PEORIA         CLEAR     46  28  49 E5        29.98S
LACON*         CLEAR     38  30  72 CALM      29.98S
LINCOLN*       CLEAR     43  31  63 CALM      29.97S
SPRINGFIELD    CLEAR     47  29  49 CALM      29.97S
TAYLORVILLE    CLEAR     41  30  64 CALM      29.97R
$$

ILZ033-039-045-046-055>057-062-063-241200-
EAST-CENTRAL ILLINOIS

CITY           SKY/WX    TMP DP  RH WIND       PRES   REMARKS
CHAMPAIGN      CLEAR     47  29  49 NE9       29.97F
RANTOUL*       CLEAR     48  32  53 NE7       29.98F
MATTOON        CLEAR     41  33  73 N3        29.96R
PARIS*         CLEAR     44  34  67 NE6       29.97S
$$

ILZ079-100>102-241200-
SOUTHWEST ILLINOIS

CITY           SKY/WX    TMP DP  RH WIND       PRES   REMARKS
ALTON          CLEAR     40  33  77 NE3       29.96R
BELLEVILLE     CLEAR     44  34  68 NW3       29.94R
CAHOKIA*       CLEAR     38  36  92 CALM      29.95R FOG
SPARTA*        CLEAR     41  39  92 W5        29.95R
$$

ILZ064>066-069>071-074>076-080>082-084>086-088>090-092>094-241200-
SOUTH-CENTRAL ILLINOIS

CITY           SKY/WX    TMP DP  RH WIND       PRES   REMARKS
CARBONDALE     CLEAR     41  38  89 N3        29.92R
CAIRO*         CLEAR     50  37  60 N5        29.89R
EFFINGHAM*     CLEAR     49  33  54 CALM      29.96S
MARION         CLEAR     45  37  76 N5        29.92R
MT. VERNON     CLOUDY    40  36  86 N3        29.93R
CENTRALIA*     CLEAR     43  36  78 CALM      29.92S
SALEM*         CLEAR     50  32  50 NE5       29.93S
METROPOLIS*    CLEAR     48  39  71 N5        29.90R
$$

ILZ067-068-072-073-078-083-087-091-241200-
SOUTHEAST ILLINOIS

CITY           SKY/WX    TMP DP  RH WIND       PRES   REMARKS
LAWRENCEVILLE  CLEAR     48  35  60 NE9       29.93R
FLORA*         CLEAR     48  35  61 N5        29.93S
FAIRFIELD*     CLEAR     47  34  60 N3        29.92S
HARRISBURG*    CLEAR     49  36  60 N7        29.90F
ROBINSON*      CLEAR     42  34  72 N7        29.94F
CARMI*         CLEAR     47  36  65 N8        29.90F
$$

ABBREVIATIONS USED IN REMARKS
   TC - TEMPERATURE IN CELSIUS
  WCI - WIND CHILL INDEX
   HX - HEAT INDEX
  VSB - VISIBILITY
$$





USA.gov is the U.S. government's official web portal to all federal, state and local government web resources and services.